Starlink 31512

operational
NORAD ID: 59500 Int'l Des: 2024-071 Owner: SPXS Country: US Constellation: starlink
LEOCIRCULAR

Starlink 31512について

説明を読み込み中...

リアルタイム位置

3D地球を読み込み中...

次回通過

高度履歴

Altitude vs Time

uPlot chart will show altitude changes over time

軌道要素

1 59500U 24071S 26035.55458697 -.00008767 00000-0 -30914-3 0 9998
2 59500 42.9985 126.7252 0001364 279.8234 80.2464 15.27611881103594
Epoch: Feb 4, 2026 • Age: 18 hours

現在のステータス

高度 484.3 km
速度 7.63 km/s
衛星直下点 29.62°N, 22.42°E
打ち上げ日 Apr 13, 2024
運用期間 1.8 years
タイプ internet

技術仕様

分類 Payload
質量 730.00 kg
乾燥質量 700.00 kg
総質量 730.00 kg
長さ 0.30 m
直径 4.10 m
スパン 29.00 m
形状 Box + pan
製造者 SPXS
バスタイプ Starlink V2M
フェーズステータス In Orbit
所有者/国 SPXS/US

大規模コンステレーション

Loading constellations...